Time,TemperatureF,DewpointF,PressureIn,WindDirection,WindDirectionDegrees,WindSpeedMPH,WindSpeedGustMPH,Humidity,HourlyPrecipIn,Conditions,Clouds,dailyrainin,SolarRadiationWatts/m^2,SoftwareType,DateUTC
2013-01-30 00:01:00,54.0,54.0,-100.00,West,276,0.0,4.0,99,0.00,,,0.00,0.000000,,2013-01-30 10:01:00,
2013-01-30 00:11:00,54.0,54.0,-100.00,West,276,0.0,4.0,99,0.00,,,0.00,0.000000,,2013-01-30 10:11:00,
2013-01-30 00:21:00,54.0,54.0,-100.00,West,276,0.0,4.0,99,0.00,,,0.00,0.000000,,2013-01-30 10:21:00,
2013-01-30 00:31:00,54.0,54.0,-100.00,West,276,0.0,4.0,99,0.00,,,0.00,0.000000,,2013-01-30 10:31:00,
2013-01-30 00:52:00,51.0,51.0,-100.00,ESE,108,1.0,4.0,99,0.00,,,0.00,0.000000,,2013-01-30 10:52:00,
2013-01-30 01:02:00,51.0,51.0,-100.00,ESE,108,1.0,4.0,99,0.00,,,0.00,0.000000,,2013-01-30 11:02:00,
2013-01-30 01:11:00,51.0,51.0,-100.00,ESE,108,1.0,4.0,99,0.00,,,0.00,0.000000,,2013-01-30 11:11:00,
2013-01-30 01:21:00,51.0,51.0,-100.00,ESE,108,1.0,4.0,99,0.00,,,0.00,0.000000,,2013-01-30 11:21:00,
2013-01-30 01:32:00,51.0,51.0,-100.00,ESE,108,1.0,4.0,99,0.00,,,0.00,0.000000,,2013-01-30 11:32:00,
2013-01-30 01:52:00,55.0,55.0,-100.00,ESE,123,0.0,9.0,99,0.00,,,0.00,0.000000,,2013-01-30 11:52:00,
2013-01-30 02:02:00,55.0,55.0,-100.00,ESE,123,0.0,9.0,99,0.00,,,0.00,0.000000,,2013-01-30 12:02:00,
2013-01-30 02:12:00,55.0,55.0,-100.00,ESE,123,0.0,9.0,99,0.00,,,0.00,0.000000,,2013-01-30 12:12:00,
2013-01-30 02:22:00,55.0,55.0,-100.00,ESE,123,0.0,9.0,99,0.00,,,0.00,0.000000,,2013-01-30 12:22:00,
2013-01-30 02:32:00,55.0,55.0,-100.00,ESE,123,0.0,9.0,99,0.00,,,0.00,0.000000,,2013-01-30 12:32:00,
2013-01-30 03:02:00,54.0,54.0,-100.00,SSW,212,1.0,9.0,99,0.00,,,0.00,0.000000,,2013-01-30 13:02:00,
2013-01-30 03:12:00,54.0,54.0,-100.00,SSW,212,1.0,9.0,99,0.00,,,0.00,0.000000,,2013-01-30 13:12:00,
2013-01-30 03:22:00,54.0,54.0,-100.00,SSW,212,1.0,9.0,99,0.00,,,0.00,0.000000,,2013-01-30 13:22:00,
2013-01-30 03:32:00,54.0,54.0,-100.00,SSW,212,1.0,9.0,99,0.00,,,0.00,0.000000,,2013-01-30 13:32:00,
2013-01-30 03:53:00,51.0,51.0,-100.00,ESE,115,10.0,21.0,99,0.00,,,0.00,0.000000,,2013-01-30 13:53:00,
2013-01-30 04:02:00,51.0,51.0,-100.00,ESE,115,10.0,21.0,99,0.00,,,0.00,0.000000,,2013-01-30 14:02:00,
2013-01-30 04:11:00,51.0,51.0,-100.00,ESE,115,10.0,21.0,99,0.00,,,0.00,0.000000,,2013-01-30 14:11:00,
2013-01-30 04:22:00,51.0,51.0,-100.00,ESE,115,10.0,21.0,99,0.00,,,0.00,0.000000,,2013-01-30 14:22:00,
2013-01-30 04:32:00,51.0,51.0,-100.00,ESE,115,10.0,21.0,99,0.00,,,0.00,0.000000,,2013-01-30 14:32:00,
2013-01-30 04:53:00,53.0,53.0,-100.00,SE,126,7.0,16.0,99,0.00,,,0.00,0.000000,,2013-01-30 14:53:00,
2013-01-30 05:03:00,53.0,53.0,-100.00,SE,126,7.0,16.0,99,0.00,,,0.00,0.000000,,2013-01-30 15:03:00,
2013-01-30 05:12:00,53.0,53.0,-100.00,SE,126,7.0,16.0,99,0.00,,,0.00,0.000000,,2013-01-30 15:12:00,
2013-01-30 05:22:00,53.0,53.0,-100.00,SE,126,7.0,16.0,99,0.00,,,0.00,0.000000,,2013-01-30 15:22:00,
2013-01-30 05:32:00,53.0,53.0,-100.00,SE,126,7.0,16.0,99,0.00,,,0.00,0.000000,,2013-01-30 15:32:00,
2013-01-30 05:53:00,53.0,53.0,-100.00,SE,132,5.0,13.0,99,0.00,,,0.00,0.000000,,2013-01-30 15:53:00,
2013-01-30 06:03:00,53.0,53.0,-100.00,SE,132,5.0,13.0,99,0.00,,,0.00,0.000000,,2013-01-30 16:03:00,
2013-01-30 06:12:00,53.0,53.0,-100.00,SE,132,5.0,13.0,99,0.00,,,0.00,0.000000,,2013-01-30 16:12:00,
2013-01-30 06:22:00,53.0,53.0,-100.00,SE,132,5.0,13.0,99,0.00,,,0.00,0.000000,,2013-01-30 16:22:00,
2013-01-30 06:32:00,53.0,53.0,-100.00,SE,132,5.0,13.0,99,0.00,,,0.00,0.000000,,2013-01-30 16:32:00,
2013-01-30 06:52:00,51.0,51.0,-100.00,SSE,147,7.0,12.0,99,0.00,,,0.00,0.000000,,2013-01-30 16:52:00,
2013-01-30 07:02:00,51.0,51.0,-100.00,SSE,147,7.0,12.0,99,0.00,,,0.00,0.000000,,2013-01-30 17:02:00,
2013-01-30 07:12:00,51.0,51.0,-100.00,SSE,147,7.0,12.0,99,0.00,,,0.00,0.000000,,2013-01-30 17:12:00,
2013-01-30 07:22:00,51.0,51.0,-100.00,SSE,147,7.0,12.0,99,0.00,,,0.00,0.000000,,2013-01-30 17:22:00,
2013-01-30 07:31:00,51.0,51.0,-100.00,SSE,147,7.0,12.0,99,0.00,,,0.00,0.000000,,2013-01-30 17:31:00,
2013-01-30 07:53:00,52.0,52.0,-100.00,SE,128,9.0,16.0,99,0.00,,,0.00,4.000000,,2013-01-30 17:53:00,
2013-01-30 08:02:00,52.0,52.0,-100.00,SE,128,9.0,16.0,99,0.00,,,0.00,4.000000,,2013-01-30 18:02:00,
2013-01-30 08:12:00,52.0,52.0,-100.00,SE,128,9.0,16.0,99,0.00,,,0.00,4.000000,,2013-01-30 18:12:00,
2013-01-30 08:22:00,52.0,52.0,-100.00,SE,128,9.0,16.0,99,0.00,,,0.00,4.000000,,2013-01-30 18:22:00,
2013-01-30 08:32:00,52.0,52.0,-100.00,SE,128,9.0,16.0,99,0.00,,,0.00,4.000000,,2013-01-30 18:32:00,
2013-01-30 08:53:00,53.0,53.0,-100.00,ESE,107,11.0,15.0,99,0.00,,,0.00,89.000000,,2013-01-30 18:53:00,
2013-01-30 09:02:00,53.0,53.0,-100.00,ESE,107,11.0,15.0,99,0.00,,,0.00,89.000000,,2013-01-30 19:02:00,
2013-01-30 09:12:00,53.0,53.0,-100.00,ESE,107,11.0,15.0,99,0.00,,,0.00,89.000000,,2013-01-30 19:12:00,
2013-01-30 09:22:00,53.0,53.0,-100.00,ESE,107,11.0,15.0,99,0.00,,,0.00,89.000000,,2013-01-30 19:22:00,
2013-01-30 09:32:00,53.0,53.0,-100.00,ESE,107,11.0,15.0,99,0.00,,,0.00,89.000000,,2013-01-30 19:32:00,
2013-01-30 09:53:00,59.0,55.0,-100.00,SE,128,9.0,18.0,87,0.00,,,0.00,288.000000,,2013-01-30 19:53:00,
2013-01-30 10:03:00,59.0,55.0,-100.00,SE,128,9.0,18.0,87,0.00,,,0.00,288.000000,,2013-01-30 20:03:00,
2013-01-30 10:11:00,59.0,55.0,-100.00,SE,128,9.0,18.0,87,0.00,,,0.00,288.000000,,2013-01-30 20:11:00,
2013-01-30 10:21:00,59.0,55.0,-100.00,SE,128,9.0,18.0,87,0.00,,,0.00,288.000000,,2013-01-30 20:21:00,
2013-01-30 10:32:00,59.0,55.0,-100.00,SE,128,9.0,18.0,87,0.00,,,0.00,288.000000,,2013-01-30 20:32:00,
2013-01-30 10:53:00,64.0,54.0,-100.00,South,183,7.0,15.0,70,0.00,,,0.00,460.000000,,2013-01-30 20:53:00,
2013-01-30 11:03:00,64.0,54.0,-100.00,South,183,7.0,15.0,70,0.00,,,0.00,460.000000,,2013-01-30 21:03:00,
2013-01-30 11:11:00,64.0,54.0,-100.00,South,183,7.0,15.0,70,0.00,,,0.00,460.000000,,2013-01-30 21:11:00,
2013-01-30 11:22:00,64.0,54.0,-100.00,South,183,7.0,15.0,70,0.00,,,0.00,460.000000,,2013-01-30 21:22:00,
2013-01-30 11:31:00,64.0,54.0,-100.00,South,183,7.0,15.0,70,0.00,,,0.00,460.000000,,2013-01-30 21:31:00,
2013-01-30 11:52:00,66.0,51.0,-100.00,SSW,206,7.0,15.0,58,0.00,,,0.00,645.000000,,2013-01-30 21:52:00,
2013-01-30 12:02:00,66.0,51.0,-100.00,SSW,206,7.0,15.0,58,0.00,,,0.00,645.000000,,2013-01-30 22:02:00,
2013-01-30 12:11:00,66.0,51.0,-100.00,SSW,206,7.0,15.0,58,0.00,,,0.00,645.000000,,2013-01-30 22:11:00,
2013-01-30 12:22:00,66.0,51.0,-100.00,SSW,206,7.0,15.0,58,0.00,,,0.00,645.000000,,2013-01-30 22:22:00,
2013-01-30 12:31:00,66.0,51.0,-100.00,SSW,206,7.0,15.0,58,0.00,,,0.00,645.000000,,2013-01-30 22:31:00,
2013-01-30 12:53:00,64.0,57.0,-100.00,SW,220,9.0,18.0,79,0.00,,,0.00,705.000000,,2013-01-30 22:53:00,
2013-01-30 13:02:00,64.0,57.0,-100.00,SW,220,9.0,18.0,79,0.00,,,0.00,705.000000,,2013-01-30 23:02:00,
2013-01-30 13:11:00,64.0,57.0,-100.00,SW,220,9.0,18.0,79,0.00,,,0.00,705.000000,,2013-01-30 23:11:00,
2013-01-30 13:22:00,64.0,57.0,-100.00,SW,220,9.0,18.0,79,0.00,,,0.00,705.000000,,2013-01-30 23:22:00,
2013-01-30 13:32:00,64.0,57.0,-100.00,SW,220,9.0,18.0,79,0.00,,,0.00,705.000000,,2013-01-30 23:32:00,
2013-01-30 13:52:00,61.0,57.0,-100.00,SW,230,8.0,14.0,87,0.00,,,0.00,641.000000,,2013-01-30 23:52:00,
2013-01-30 14:01:00,61.0,57.0,-100.00,SW,230,8.0,14.0,87,0.00,,,0.00,641.000000,,2013-01-31 00:01:00,
2013-01-30 14:11:00,61.0,57.0,-100.00,SW,230,8.0,14.0,87,0.00,,,0.00,641.000000,,2013-01-31 00:11:00,
2013-01-30 14:21:00,61.0,57.0,-100.00,SW,230,8.0,14.0,87,0.00,,,0.00,641.000000,,2013-01-31 00:21:00,
2013-01-30 14:31:00,61.0,57.0,-100.00,SW,230,8.0,14.0,87,0.00,,,0.00,641.000000,,2013-01-31 00:31:00,
2013-01-30 14:53:00,59.0,58.0,-100.00,WSW,239,6.0,15.0,95,0.00,,,0.00,410.000000,,2013-01-31 00:53:00,
2013-01-30 15:02:00,59.0,58.0,-100.00,WSW,239,6.0,15.0,95,0.00,,,0.00,410.000000,,2013-01-31 01:02:00,
2013-01-30 15:11:00,59.0,58.0,-100.00,WSW,239,6.0,15.0,95,0.00,,,0.00,410.000000,,2013-01-31 01:11:00,
2013-01-30 15:21:00,59.0,58.0,-100.00,WSW,239,6.0,15.0,95,0.00,,,0.00,410.000000,,2013-01-31 01:21:00,
2013-01-30 15:31:00,59.0,58.0,-100.00,WSW,239,6.0,15.0,95,0.00,,,0.00,410.000000,,2013-01-31 01:31:00,
2013-01-30 15:52:00,58.0,58.0,-100.00,SW,228,4.0,15.0,99,0.03,,,0.03,270.000000,,2013-01-31 01:52:00,
2013-01-30 16:01:00,58.0,58.0,-100.00,SW,228,4.0,15.0,99,0.03,,,0.03,270.000000,,2013-01-31 02:01:00,
2013-01-30 16:11:00,58.0,58.0,-100.00,SW,228,4.0,15.0,99,0.03,,,0.03,270.000000,,2013-01-31 02:11:00,
2013-01-30 16:21:00,58.0,58.0,-100.00,SW,228,4.0,15.0,99,0.03,,,0.03,270.000000,,2013-01-31 02:21:00,
2013-01-30 16:32:00,58.0,58.0,-100.00,SW,228,4.0,15.0,99,0.03,,,0.03,270.000000,,2013-01-31 02:32:00,
2013-01-30 17:02:00,56.0,56.0,-100.00,SW,230,6.0,8.0,100,0.47,,,0.50,115.000000,,2013-01-31 03:02:00,
2013-01-30 17:11:00,56.0,56.0,-100.00,SW,230,6.0,8.0,100,0.47,,,0.50,115.000000,,2013-01-31 03:11:00,
2013-01-30 17:21:00,56.0,56.0,-100.00,SW,230,6.0,8.0,100,0.47,,,0.50,115.000000,,2013-01-31 03:21:00,
2013-01-30 17:31:00,56.0,56.0,-100.00,SW,230,6.0,8.0,100,0.47,,,0.50,115.000000,,2013-01-31 03:31:00,
2013-01-30 17:52:00,54.0,54.0,-100.00,NW,326,1.0,9.0,100,0.01,,,-99.99,73.000000,,2013-01-31 03:52:00,
2013-01-30 18:02:00,54.0,54.0,-100.00,NW,326,1.0,9.0,100,0.01,,,-99.99,73.000000,,2013-01-31 04:02:00,
2013-01-30 18:11:00,54.0,54.0,-100.00,NW,326,1.0,9.0,100,0.01,,,-99.99,73.000000,,2013-01-31 04:11:00,
2013-01-30 18:22:00,54.0,54.0,-100.00,NW,326,1.0,9.0,100,0.01,,,-99.99,73.000000,,2013-01-31 04:22:00,
2013-01-30 18:31:00,54.0,54.0,-100.00,NW,326,1.0,9.0,100,0.01,,,-99.99,73.000000,,2013-01-31 04:31:00,
2013-01-30 18:52:00,55.0,55.0,-100.00,WNW,283,0.0,7.0,100,0.00,,,0.51,20.000000,,2013-01-31 04:52:00,
2013-01-30 19:03:00,55.0,55.0,-100.00,WNW,283,0.0,7.0,100,0.00,,,0.51,20.000000,,2013-01-31 05:03:00,
2013-01-30 19:11:00,55.0,55.0,-100.00,WNW,283,0.0,7.0,100,0.00,,,0.51,20.000000,,2013-01-31 05:11:00,
2013-01-30 19:21:00,55.0,55.0,-100.00,WNW,283,0.0,7.0,100,0.00,,,0.51,20.000000,,2013-01-31 05:21:00,
2013-01-30 19:31:00,55.0,55.0,-100.00,WNW,283,0.0,7.0,100,0.00,,,0.51,20.000000,,2013-01-31 05:31:00,